Location: Ellerstadt
(49.4644°N, 8.2615°E)
Time: 00:10:01
(UTC+00:00)

OBJECT-B - Pass Details

Date: 03 March 2021
Orbit: 414 x 427 km, 97.0° (Epoch: 11 April)

Event Time Altitude Azimuth Distance (km) Brightness Sun altitude
Exits shadow 18:05:12 13° 76° (ENE) 1,367 2.7 -9.2°
Maximum altitude 18:05:49 13° 63° (ENE) 1,338 2.8 -9.3°
Drops below altitude 10° 18:07:23 10° 34° (NE) 1,515 3.3 -9.6°
Sets 18:10:13 0° 6° (N) 2,382 4.5 -10.1°
